| time (UTC) | temp F | wind direction | speed MPH | gust MPH | rain 1hr in | rain 24hr in | rain mn in | humidity % | barometer mb |
| 20260502223044 | 64 | 128 | 0.0 | 5.0 | 0.00 | 0.00 | 0.00 | 36 | 1008.3 |
| 20260502222541 | 64 | 154 | 1.0 | 3.0 | 0.00 | 0.00 | 0.00 | 36 | 1008.4 |
| 20260502222037 | 63 | 143 | 1.0 | 2.0 | 0.00 | 0.00 | 0.00 | 36 | 1008.6 |
| 20260502221533 | 64 | 204 | 1.0 | 3.0 | 0.00 | 0.00 | 0.00 | 36 | 1008.6 |
| 20260502221031 | 64 | 137 | 0.0 | 3.0 | 0.00 | 0.00 | 0.00 | 36 | 1008.6 |
| 20260502220526 | 64 | 161 | 1.0 | 3.0 | 0.00 | 0.00 | 0.00 | 36 | 1008.7 |
| 20260502220024 | 64 | 318 | 3.0 | 3.0 | 0.00 | 0.00 | 0.00 | 35 | 1008.7 |
| 20260502215520 | 64 | 100 | 1.0 | 5.0 | 0.00 | 0.00 | 0.00 | 34 | 1008.9 |
| 20260502215017 | 64 | 283 | 2.0 | 3.0 | 0.00 | 0.00 | 0.00 | 35 | 1009.0 |
| 20260502214514 | 64 | 25 | 1.0 | 3.0 | 0.00 | 0.00 | 0.00 | 36 | 1008.9 |
| 20260502214012 | 64 | 197 | 1.0 | 3.0 | 0.00 | 0.00 | 0.00 | 34 | 1009.2 |
| 20260502213508 | 64 | 162 | 1.0 | 3.0 | 0.00 | 0.00 | 0.00 | 35 | 1009.1 |
| 20260502213007 | 64 | 114 | 2.0 | 5.0 | 0.00 | 0.00 | 0.00 | 34 | 1009.2 |
| 20260502212505 | 64 | 182 | 1.0 | 3.0 | 0.00 | 0.00 | 0.00 | 36 | 1009.3 |
| 20260502212002 | 64 | 102 | 1.0 | 3.0 | 0.00 | 0.00 | 0.00 | 35 | 1009.6 |
| 20260502211457 | 64 | 186 | 5.0 | 7.0 | 0.00 | 0.00 | 0.00 | 33 | 1009.4 |
| 20260502210955 | 66 | 202 | 4.0 | 6.0 | 0.00 | 0.00 | 0.00 | 32 | 1009.8 |
| 20260502210451 | 67 | 240 | 2.0 | 3.0 | 0.00 | 0.00 | 0.00 | 31 | 1009.8 |
| 20260502205949 | 68 | 214 | 5.0 | 6.0 | 0.00 | 0.00 | 0.00 | 31 | 1009.6 |
| 20260502205445 | 68 | 182 | 2.0 | 5.0 | 0.00 | 0.00 | 0.00 | 32 | 1009.8 |
| 20260502204942 | 67 | 149 | 0.0 | 3.0 | 0.00 | 0.00 | 0.00 | 33 | 1009.9 |
| 20260502204439 | 66 | 282 | 4.0 | 7.0 | 0.00 | 0.00 | 0.00 | 33 | 1009.9 |
| 20260502203937 | 64 | 153 | 2.0 | 6.0 | 0.00 | 0.00 | 0.00 | 32 | 1010.2 |
| 20260502203434 | 64 | 159 | 1.0 | 3.0 | 0.00 | 0.00 | 0.00 | 33 | 1010.4 |
| 20260502202930 | 63 | 141 | 0.0 | 5.0 | 0.00 | 0.00 | 0.00 | 36 | 1010.4 |
| 20260502202427 | 63 | 176 | 1.0 | 6.0 | 0.00 | 0.00 | 0.00 | 35 | 1010.5 |
| 20260502201925 | 64 | 144 | 0.0 | 5.0 | 0.00 | 0.00 | 0.00 | 34 | 1010.6 |
| 20260502201421 | 64 | 112 | 3.0 | 8.0 | 0.00 | 0.00 | 0.00 | 34 | 1010.9 |
| 20260502200918 | 63 | 277 | 3.0 | 3.0 | 0.00 | 0.00 | 0.00 | 34 | 1010.8 |
| 20260502200413 | 65 | 276 | 3.0 | 5.0 | 0.00 | 0.00 | 0.00 | 32 | 1011.0 |
| 20260502195912 | 66 | 157 | 1.0 | 6.0 | 0.00 | 0.00 | 0.00 | 32 | 1011.1 |
| 20260502195408 | 65 | 181 | 3.0 | 5.0 | 0.00 | 0.00 | 0.00 | 32 | 1011.0 |
| 20260502194905 | 65 | 119 | 3.0 | 7.0 | 0.00 | 0.00 | 0.00 | 31 | 1011.0 |
| 20260502194402 | 64 | 184 | 2.0 | 5.0 | 0.00 | 0.00 | 0.00 | 32 | 1011.0 |
| 20260502193857 | 64 | 127 | 0.0 | 5.0 | 0.00 | 0.00 | 0.00 | 33 | 1011.2 |
| 20260502193355 | 62 | 172 | 3.0 | 6.0 | 0.00 | 0.00 | 0.00 | 33 | 1011.2 |
| 20260502192850 | 63 | 158 | 3.0 | 3.0 | 0.00 | 0.00 | 0.00 | 32 | 1011.3 |
| 20260502192348 | 63 | 173 | 2.0 | 5.0 | 0.00 | 0.00 | 0.00 | 33 | 1011.6 |
| 20260502191844 | 63 | 166 | 2.0 | 6.0 | 0.00 | 0.00 | 0.00 | 32 | 1011.5 |
| 20260502191343 | 64 | 225 | 3.0 | 6.0 | 0.00 | 0.00 | 0.00 | 31 | 1011.9 |
| 20260502190839 | 64 | 162 | 2.0 | 7.0 | 0.00 | 0.00 | 0.00 | 32 | 1011.8 |
| 20260502190337 | 64 | 279 | 3.0 | 3.0 | 0.00 | 0.00 | 0.00 | 33 | 1012.1 |
| 20260502185832 | 62 | 182 | 3.0 | 7.0 | 0.00 | 0.00 | 0.00 | 32 | 1012.1 |
| 20260502185328 | 62 | 149 | 2.0 | 3.0 | 0.00 | 0.00 | 0.00 | 32 | 1012.1 |
| 20260502184825 | 61 | 126 | 2.0 | 5.0 | 0.00 | 0.00 | 0.00 | 34 | 1012.2 |
| 20260502184321 | 60 | 147 | 3.0 | 3.0 | 0.00 | 0.00 | 0.00 | 34 | 1012.3 |
| 20260502183818 | 63 | 134 | 4.0 | 6.0 | 0.00 | 0.00 | 0.00 | 32 | 1012.3 |
| 20260502183314 | 63 | 128 | 1.0 | 3.0 | 0.00 | 0.00 | 0.00 | 33 | 1012.5 |
| 20260502182809 | 64 | 337 | 5.0 | 6.0 | 0.00 | 0.00 | 0.00 | 32 | 1012.4 |
| 20260502182305 | 62 | 130 | 1.0 | 3.0 | 0.00 | 0.00 | 0.00 | 35 | 1012.4 |
| 20260502181802 | 62 | 140 | 1.0 | 3.0 | 0.00 | 0.00 | 0.00 | 33 | 1012.3 |
| 20260502181300 | 62 | 155 | 3.0 | 5.0 | 0.00 | 0.00 | 0.00 | 33 | 1012.6 |
| 20260502180758 | 62 | 201 | 0.0 | 5.0 | 0.00 | 0.00 | 0.00 | 33 | 1012.9 |
| 20260502180255 | 62 | 46 | 2.0 | 2.0 | 0.00 | 0.00 | 0.00 | 34 | 1013.0 |
| 20260502170214 | 61 | 211 | 3.0 | 6.0 | 0.00 | 0.00 | 0.00 | 33 | 1014.0 |
| 20260502164201 | 59 | 110 | 2.0 | 7.0 | 0.00 | 0.00 | 0.00 | 36 | 1014.2 |
| 20260502163656 | 59 | 178 | 2.0 | 5.0 | 0.00 | 0.00 | 0.00 | 33 | 1014.4 |
| 20260502163153 | 59 | 152 | 1.0 | 5.0 | 0.00 | 0.00 | 0.00 | 35 | 1014.3 |
| 20260502162650 | 59 | 167 | 3.0 | 5.0 | 0.00 | 0.00 | 0.00 | 33 | 1014.7 |
| 20260502162147 | 57 | 165 | 3.0 | 6.0 | 0.00 | 0.00 | 0.00 | 35 | 1014.5 |
| 20260502161644 | 59 | 36 | 2.0 | 6.0 | 0.00 | 0.00 | 0.00 | 33 | 1014.5 |
| 20260502161140 | 59 | 162 | 0.0 | 3.0 | 0.00 | 0.00 | 0.00 | 35 | 1014.6 |
| 20260502160639 | 58 | 199 | 3.0 | 5.0 | 0.00 | 0.00 | 0.00 | 36 | 1014.8 |
| 20260502160137 | 58 | 192 | 3.0 | 6.0 | 0.00 | 0.00 | 0.00 | 35 | 1014.8 |
| 20260502152051 | 55 | 128 | 2.0 | 3.0 | 0.00 | 0.00 | 0.00 | 36 | 1015.3 |
| 20260502151549 | 56 | 114 | 0.0 | 2.0 | 0.00 | 0.00 | 0.00 | 36 | 1015.2 |
| 20260502151046 | 56 | 153 | 1.0 | 3.0 | 0.00 | 0.00 | 0.00 | 37 | 1015.3 |
| 20260502150543 | 55 | 116 | 0.0 | 3.0 | 0.00 | 0.00 | 0.00 | 37 | 1015.2 |
| 20260502130428 | 40 | 145 | 1.0 | 1.0 | 0.00 | 0.00 | 0.00 | 72 | 1016.1 |
| 20260502123411 | 36 | 152 | 1.0 | 2.0 | 0.00 | 0.00 | 0.00 | 77 | 1015.9 |
| 20260502122908 | 35 | 144 | 0.0 | 1.0 | 0.00 | 0.00 | 0.00 | 84 | 1015.9 |
| 20260502122404 | 34 | 144 | 1.0 | 2.0 | 0.00 | 0.00 | 0.00 | 84 | 1016.0 |
| 20260502121902 | 32 | 154 | 1.0 | 2.0 | 0.00 | 0.00 | 0.00 | 90 | 1016.0 |
| 20260502121359 | 31 | 138 | 0.0 | 0.0 | 0.00 | 0.00 | 0.00 | 88 | 1015.8 |
| 20260502120857 | 32 | 138 | 0.0 | 1.0 | 0.00 | 0.00 | 0.00 | 88 | 1015.7 |
| 20260502120353 | 31 | 138 | 0.0 | 0.0 | 0.00 | 0.00 | 0.00 | 89 | 1015.9 |
| 20260502115850 | 30 | 138 | 0.0 | 0.0 | 0.00 | 0.00 | 0.00 | 89 | 1015.8 |
| 20260502115347 | 29 | 138 | 0.0 | 0.0 | 0.00 | 0.00 | 0.00 | 88 | 1015.9 |
| 20260502114843 | 29 | 139 | 0.0 | 0.0 | 0.00 | 0.00 | 0.00 | 88 | 1016.0 |
| 20260502114340 | 29 | 139 | 0.0 | 0.0 | 0.00 | 0.00 | 0.00 | 88 | 1015.9 |
| 20260502113837 | 29 | 139 | 0.0 | 0.0 | 0.00 | 0.00 | 0.00 | 87 | 1016.0 |
| 20260502113335 | 29 | 139 | 0.0 | 0.0 | 0.00 | 0.00 | 0.00 | 86 | 1015.9 |
| 20260502112833 | 29 | 139 | 0.0 | 0.0 | 0.00 | 0.00 | 0.00 | 86 | 1016.0 |
| 20260502112330 | 29 | 139 | 0.0 | 0.0 | 0.00 | 0.00 | 0.00 | 86 | 1015.8 |
| 20260502111828 | 29 | 140 | 0.0 | 0.0 | 0.00 | 0.00 | 0.00 | 86 | 1015.6 |
| 20260502111325 | 29 | 140 | 0.0 | 0.0 | 0.00 | 0.00 | 0.00 | 86 | 1015.7 |
| 20260502110823 | 29 | 140 | 0.0 | 0.0 | 0.00 | 0.00 | 0.00 | 85 | 1015.9 |
| 20260502110320 | 29 | 140 | 0.0 | 0.0 | 0.00 | 0.00 | 0.00 | 85 | 1015.7 |
| 20260502105818 | 29 | 140 | 0.0 | 0.0 | 0.00 | 0.00 | 0.00 | 86 | 1015.8 |
| 20260502105314 | 29 | 140 | 0.0 | 0.0 | 0.00 | 0.00 | 0.00 | 86 | 1015.8 |
| 20260502104812 | 29 | 140 | 0.0 | 0.0 | 0.00 | 0.00 | 0.00 | 85 | 1015.7 |
| 20260502104309 | 29 | 140 | 0.0 | 0.0 | 0.00 | 0.00 | 0.00 | 84 | 1015.8 |
| 20260502103806 | 30 | 140 | 0.0 | 0.0 | 0.00 | 0.00 | 0.00 | 82 | 1015.8 |
| 20260502103303 | 30 | 140 | 0.0 | 0.0 | 0.00 | 0.00 | 0.00 | 82 | 1015.8 |
| 20260502102801 | 30 | 140 | 0.0 | 1.0 | 0.00 | 0.00 | 0.00 | 81 | 1015.8 |
| 20260502102257 | 30 | 140 | 0.0 | 0.0 | 0.00 | 0.00 | 0.00 | 81 | 1015.8 |
| 20260502101755 | 30 | 140 | 0.0 | 0.0 | 0.00 | 0.00 | 0.00 | 82 | 1015.8 |
| 20260502101253 | 30 | 140 | 0.0 | 0.0 | 0.00 | 0.00 | 0.00 | 81 | 1015.7 |
| 20260502100751 | 31 | 140 | 0.0 | 1.0 | 0.00 | 0.00 | 0.00 | 79 | 1015.7 |
| 20260502100249 | 31 | 140 | 0.0 | 1.0 | 0.00 | 0.00 | 0.00 | 78 | 1015.6 |
| 20260502091224 | 32 | 139 | 0.0 | 0.0 | 0.00 | 0.00 | 0.00 | 76 | 1015.5 |
| 20260502090721 | 33 | 139 | 0.0 | 0.0 | 0.00 | 0.00 | 0.00 | 75 | 1015.4 |
| 20260502090217 | 34 | 139 | 0.0 | 0.0 | 0.00 | 0.00 | 0.00 | 73 | 1015.5 |
| 20260502071113 | 34 | 138 | 0.0 | 0.0 | 0.00 | 0.00 | 0.00 | 69 | 1015.8 |
| 20260502070611 | 35 | 138 | 0.0 | 0.0 | 0.00 | 0.00 | 0.00 | 68 | 1015.8 |
| 20260502070109 | 36 | 138 | 1.0 | 1.0 | 0.00 | 0.00 | 0.00 | 67 | 1015.8 |
| 20260502065607 | 37 | 138 | 0.0 | 0.0 | 0.00 | 0.00 | 0.00 | 63 | 1015.9 |
| 20260502065104 | 36 | 138 | 0.0 | 0.0 | 0.00 | 0.00 | 0.00 | 63 | 1015.7 |
| 20260502064603 | 36 | 138 | 0.0 | 0.0 | 0.00 | 0.00 | 0.00 | 64 | 1015.9 |
| 20260502064100 | 36 | 138 | 0.0 | 0.0 | 0.00 | 0.00 | 0.00 | 65 | 1016.0 |
| 20260502063557 | 35 | 138 | 0.0 | 0.0 | 0.00 | 0.00 | 0.00 | 66 | 1016.0 |
| 20260502063055 | 35 | 138 | 0.0 | 0.0 | 0.00 | 0.00 | 0.00 | 67 | 1015.8 |
| 20260502062552 | 34 | 138 | 0.0 | 0.0 | 0.00 | 0.00 | 0.00 | 69 | 1016.0 |
| 20260502062050 | 35 | 138 | 0.0 | 0.0 | 0.00 | 0.00 | 0.00 | 72 | 1016.2 |
| 20260502061547 | 35 | 138 | 0.0 | 0.0 | 0.00 | 0.00 | 0.00 | 69 | 1016.0 |
| 20260502061044 | 35 | 138 | 0.0 | 0.0 | 0.00 | 0.00 | 0.00 | 71 | 1015.9 |
| 20260502060539 | 35 | 138 | 0.0 | 0.0 | 0.00 | 0.00 | 0.00 | 68 | 1015.9 |
| 20260502060037 | 35 | 138 | 0.0 | 0.0 | 0.00 | 0.00 | 0.00 | 69 | 1016.1 |
| 20260502055534 | 35 | 138 | 0.0 | 0.0 | 0.00 | 0.00 | 0.00 | 71 | 1016.0 |
| 20260502055033 | 35 | 138 | 0.0 | 1.0 | 0.00 | 0.00 | 0.00 | 72 | 1015.9 |
| 20260502054531 | 36 | 138 | 0.0 | 0.0 | 0.00 | 0.00 | 0.00 | 68 | 1016.0 |
| 20260502054027 | 36 | 138 | 0.0 | 0.0 | 0.00 | 0.00 | 0.00 | 66 | 1016.0 |
| 20260502053524 | 36 | 138 | 0.0 | 0.0 | 0.00 | 0.00 | 0.00 | 66 | 1016.0 |
| 20260502053022 | 36 | 138 | 0.0 | 0.0 | 0.00 | 0.00 | 0.00 | 66 | 1016.0 |
| 20260502052520 | 36 | 138 | 0.0 | 0.0 | 0.00 | 0.00 | 0.00 | 67 | 1015.9 |
| 20260502052018 | 36 | 138 | 0.0 | 1.0 | 0.00 | 0.00 | 0.00 | 67 | 1016.0 |
| 20260502051516 | 36 | 138 | 0.0 | 0.0 | 0.00 | 0.00 | 0.00 | 70 | 1015.8 |
| 20260502051014 | 36 | 138 | 0.0 | 0.0 | 0.00 | 0.00 | 0.00 | 69 | 1016.0 |
| 20260502050509 | 35 | 138 | 0.0 | 0.0 | 0.00 | 0.00 | 0.00 | 70 | 1015.9 |
| 20260502050007 | 36 | 138 | 0.0 | 0.0 | 0.00 | 0.00 | 0.00 | 74 | 1015.9 |
| 20260502045503 | 36 | 138 | 0.0 | 0.0 | 0.00 | 0.00 | 0.00 | 74 | 1016.0 |
| 20260502045001 | 36 | 138 | 0.0 | 0.0 | 0.00 | 0.00 | 0.00 | 72 | 1016.0 |
| 20260502044456 | 36 | 138 | 0.0 | 0.0 | 0.00 | 0.00 | 0.00 | 70 | 1015.9 |
| 20260502043953 | 36 | 138 | 0.0 | 0.0 | 0.00 | 0.00 | 0.00 | 69 | 1016.0 |
| 20260502043451 | 37 | 138 | 0.0 | 0.0 | 0.00 | 0.00 | 0.00 | 64 | 1015.8 |
| 20260502042950 | 38 | 138 | 0.0 | 0.0 | 0.00 | 0.00 | 0.00 | 62 | 1016.0 |
| 20260502042447 | 39 | 138 | 0.0 | 0.0 | 0.00 | 0.00 | 0.00 | 60 | 1016.0 |
| 20260502041945 | 40 | 138 | 0.0 | 0.0 | 0.00 | 0.00 | 0.00 | 58 | 1016.0 |
| 20260502041443 | 40 | 138 | 0.0 | 1.0 | 0.00 | 0.00 | 0.00 | 58 | 1016.0 |
| 20260502040939 | 41 | 138 | 0.0 | 0.0 | 0.00 | 0.00 | 0.00 | 56 | 1016.0 |
| 20260502040436 | 41 | 138 | 0.0 | 0.0 | 0.00 | 0.00 | 0.00 | 55 | 1015.8 |
| 20260502035932 | 41 | 138 | 0.0 | 1.0 | 0.00 | 0.00 | 0.00 | 57 | 1015.7 |
| 20260502035428 | 41 | 138 | 0.0 | 1.0 | 0.00 | 0.00 | 0.00 | 56 | 1016.1 |
| 20260502034926 | 41 | 138 | 0.0 | 1.0 | 0.00 | 0.00 | 0.00 | 57 | 1016.1 |
| 20260502034425 | 41 | 138 | 0.0 | 1.0 | 0.00 | 0.00 | 0.00 | 57 | 1015.8 |
| 20260502033923 | 41 | 138 | 0.0 | 1.0 | 0.00 | 0.00 | 0.00 | 57 | 1016.0 |
| 20260502033420 | 41 | 138 | 0.0 | 1.0 | 0.00 | 0.00 | 0.00 | 57 | 1016.0 |
| 20260502032917 | 41 | 138 | 0.0 | 1.0 | 0.00 | 0.00 | 0.00 | 57 | 1015.8 |
| 20260502032413 | 41 | 138 | 0.0 | 0.0 | 0.00 | 0.00 | 0.00 | 59 | 1016.0 |
| 20260502031910 | 40 | 138 | 0.0 | 0.0 | 0.00 | 0.00 | 0.00 | 60 | 1016.0 |
| 20260502031409 | 40 | 138 | 0.0 | 0.0 | 0.00 | 0.00 | 0.00 | 62 | 1015.9 |
| 20260502030907 | 41 | 138 | 0.0 | 0.0 | 0.00 | 0.00 | 0.00 | 59 | 1016.2 |
| 20260502030405 | 42 | 138 | 0.0 | 0.0 | 0.00 | 0.00 | 0.00 | 57 | 1016.0 |
| 20260502025903 | 42 | 138 | 0.0 | 0.0 | 0.00 | 0.00 | 0.00 | 56 | 1015.9 |
| 20260502025359 | 42 | 138 | 0.0 | 0.0 | 0.00 | 0.00 | 0.00 | 56 | 1016.0 |
| 20260502024857 | 42 | 138 | 0.0 | 0.0 | 0.00 | 0.00 | 0.00 | 58 | 1016.2 |
| 20260502024354 | 43 | 138 | 0.0 | 0.0 | 0.00 | 0.00 | 0.00 | 54 | 1016.0 |
| 20260502023852 | 44 | 138 | 0.0 | 0.0 | 0.00 | 0.00 | 0.00 | 51 | 1015.7 |
| 20260502023350 | 44 | 138 | 0.0 | 0.0 | 0.00 | 0.00 | 0.00 | 52 | 1015.8 |
| 20260502022847 | 44 | 138 | 0.0 | 0.0 | 0.00 | 0.00 | 0.00 | 51 | 1015.8 |
| 20260502022343 | 44 | 138 | 0.0 | 0.0 | 0.00 | 0.00 | 0.00 | 50 | 1015.8 |
| 20260502021840 | 44 | 138 | 0.0 | 0.0 | 0.00 | 0.00 | 0.00 | 49 | 1015.6 |
| 20260502021338 | 45 | 138 | 0.0 | 0.0 | 0.00 | 0.00 | 0.00 | 48 | 1015.6 |
| 20260502020835 | 45 | 138 | 0.0 | 0.0 | 0.00 | 0.00 | 0.00 | 50 | 1015.8 |
| 20260502020333 | 46 | 138 | 0.0 | 0.0 | 0.00 | 0.00 | 0.00 | 49 | 1015.6 |
| 20260502015829 | 46 | 138 | 0.0 | 0.0 | 0.00 | 0.00 | 0.00 | 46 | 1015.6 |
| 20260502015327 | 46 | 138 | 0.0 | 0.0 | 0.00 | 0.00 | 0.00 | 46 | 1015.6 |
| 20260502014824 | 46 | 138 | 0.0 | 0.0 | 0.00 | 0.00 | 0.00 | 44 | 1015.6 |
| 20260502014321 | 47 | 138 | 0.0 | 0.0 | 0.00 | 0.00 | 0.00 | 43 | 1015.5 |
| 20260502013817 | 47 | 138 | 0.0 | 0.0 | 0.00 | 0.00 | 0.00 | 43 | 1015.4 |
| 20260502013313 | 48 | 138 | 0.0 | 0.0 | 0.00 | 0.00 | 0.00 | 42 | 1015.5 |
| 20260502012809 | 48 | 138 | 0.0 | 0.0 | 0.00 | 0.00 | 0.00 | 43 | 1015.4 |
| 20260502012307 | 47 | 138 | 0.0 | 0.0 | 0.00 | 0.00 | 0.00 | 44 | 1015.4 |
| 20260502011804 | 48 | 138 | 0.0 | 0.0 | 0.00 | 0.00 | 0.00 | 43 | 1015.4 |
| 20260502011300 | 48 | 138 | 0.0 | 0.0 | 0.00 | 0.00 | 0.00 | 43 | 1015.3 |
| 20260502010757 | 49 | 138 | 0.0 | 0.0 | 0.00 | 0.00 | 0.00 | 41 | 1015.3 |
| 20260502010254 | 49 | 138 | 0.0 | 0.0 | 0.00 | 0.00 | 0.00 | 41 | 1015.1 |
| 20260502005751 | 50 | 138 | 0.0 | 0.0 | 0.00 | 0.00 | 0.00 | 39 | 1015.3 |
| 20260502005249 | 50 | 138 | 0.0 | 0.0 | 0.00 | 0.00 | 0.00 | 40 | 1015.2 |
| 20260502004745 | 50 | 138 | 0.0 | 0.0 | 0.00 | 0.00 | 0.00 | 38 | 1015.2 |
| 20260502004242 | 51 | 138 | 0.0 | 0.0 | 0.00 | 0.00 | 0.00 | 39 | 1015.2 |
| 20260502003739 | 51 | 138 | 0.0 | 0.0 | 0.00 | 0.00 | 0.00 | 39 | 1015.4 |
| 20260502003237 | 51 | 147 | 1.0 | 1.0 | 0.00 | 0.00 | 0.00 | 37 | 1015.5 |
| 20260502002732 | 51 | 145 | 0.0 | 0.0 | 0.00 | 0.00 | 0.00 | 37 | 1015.3 |
| 20260502002230 | 51 | 135 | 0.0 | 1.0 | 0.00 | 0.00 | 0.00 | 37 | 1015.3 |
| 20260502001727 | 51 | 305 | 0.0 | 2.0 | 0.00 | 0.00 | 0.00 | 38 | 1015.5 |
| 20260502001225 | 51 | 96 | 1.0 | 2.0 | 0.00 | 0.00 | 0.00 | 35 | 1015.5 |
| 20260502000723 | 52 | 160 | 1.0 | 1.0 | 0.00 | 0.00 | 0.00 | 35 | 1015.2 |
| 20260502000220 | 52 | 161 | 1.0 | 1.0 | 0.00 | 0.00 | 0.00 | 36 | 1015.3 |
| 20260501235716 | 52 | 147 | 0.0 | 2.0 | 0.00 | 0.00 | 0.00 | 36 | 1015.3 |
| 20260501235212 | 52 | 289 | 2.0 | 2.0 | 0.00 | 0.00 | 0.00 | 36 | 1015.3 |
| 20260501234708 | 52 | 31 | 2.0 | 3.0 | 0.00 | 0.00 | 0.00 | 35 | 1015.2 |
| 20260501234205 | 52 | 128 | 1.0 | 1.0 | 0.00 | 0.00 | 0.00 | 36 | 1015.3 |
| 20260501233703 | 52 | 174 | 1.0 | 2.0 | 0.00 | 0.00 | 0.00 | 35 | 1015.3 |
| 20260501233200 | 53 | 143 | 1.0 | 2.0 | 0.00 | 0.00 | 0.00 | 33 | 1015.3 |
| 20260501232655 | 53 | 184 | 1.0 | 3.0 | 0.00 | 0.00 | 0.00 | 33 | 1015.2 |
| 20260501232153 | 53 | 137 | 0.0 | 3.0 | 0.00 | 0.00 | 0.00 | 34 | 1015.3 |
| 20260501231651 | 53 | 220 | 2.0 | 3.0 | 0.00 | 0.00 | 0.00 | 34 | 1015.2 |
| 20260501231149 | 53 | 118 | 0.0 | 1.0 | 0.00 | 0.00 | 0.00 | 32 | 1015.2 |
| 20260501230647 | 53 | 122 | 0.0 | 1.0 | 0.00 | 0.00 | 0.00 | 33 | 1015.4 |
| 20260501230145 | 53 | 92 | 1.0 | 3.0 | 0.00 | 0.00 | 0.00 | 33 | 1015.2 |
| 20260501225642 | 52 | 153 | 1.0 | 2.0 | 0.00 | 0.00 | 0.00 | 34 | 1015.0 |
| 20260501225138 | 53 | 140 | 0.0 | 1.0 | 0.00 | 0.00 | 0.00 | 34 | 1015.3 |
| 20260501224635 | 53 | 141 | 0.0 | 2.0 | 0.00 | 0.00 | 0.00 | 35 | 1015.3 |
| 20260501224133 | 53 | 154 | 0.0 | 3.0 | 0.00 | 0.00 | 0.00 | 35 | 1015.3 |
| 20260501223629 | 53 | 148 | 0.0 | 3.0 | 0.00 | 0.00 | 0.00 | 35 | 1015.6 |